Weather in Lebyazhie

Russia / Kurgan Oblast     55°16′19″N   66°29′42″E
temp.,
°C
wind,
m/s
gust,
m/s
humid.,
%
clouds,
%
prec.,
mm/h
press.,
hPa
HPBL,
m
6 may, thu
thu623:00+19s7183480 0.0 997444
02:00+15wnw9145987 0.0 999652
05:00+10wnw9146547 0.0 1003912
08:00+11wnw912495 0.0 10061148
11:00+14wnw911365 0.0 10081775
14:00+16w911309 0.0 10092282
17:00+14wnw911334 0.0 10112029
20:00+11wnw47415 0.0 1013176
7 may, fri
fri723:00+8wnw38501 0.0 1016189
02:00+6w37550 0.0 1018130
05:00+5w410590 0.0 1020195
08:00+11wnw58445 0.0 1021689
11:00+15wnw56314 0.0 10221293
14:00+18w56260 0.0 10211606
17:00+19w45265 0.0 10211707
20:00+16wsw33370 0.0 102120
8 may, sat
sat823:00+13wsw224460 0.0 102110
02:00+11sw1148100 0.0 102110
05:00+11s1151100 0.0 102110
08:00+16sse2238100 0.0 1021265
11:00+19se3327100 0.0 10201768
14:00+20se3324100 0.0 10192150
17:00+20sse1325100 0.0 10182329
20:00+17ene113497 0.0 101811
9 may, sun
sun923:00+15ne3336100 0.0 101738
02:00+14ne3539100 0.0 101684
05:00+14ne494171 0.0 1016143
08:00+19ene81234100 0.0 10151397
11:00+19e81036100 0.0 10151968
14:00+17ese111449100 0.0 10151364
17:00+13e71370100 0.1 10161182
20:00+13ene71274100 0.7 1016975
10 may, mon
mon1023:00+13e71579100 1.2 10171120
02:00+12nne4980100 0.6 1016386
05:00+11ne4971100 0.6 1017285
08:00+13ene6950100 0.0 1018624
11:00+16ene7838100 0.0 10191489
14:00+19ene6830100 0.0 10191914
17:00+19ne5628100 0.0 10202019
20:00+15ene22400 0.0 102115